OBJECT F, 61232

Orbit data source: Space-Track

You're viewing an Uncataloged Satellite

Recently launched and/or uncataloged satellites may have evolving metadata. Metadata may include but not limited to: Owner, Maufacturer, Bus, Motor, and Mission.

OBJECT F, 61232 is a satellite owned by Guoxing (CN) in SSO that was launched on Tue, 24 Sep 2024 UTC via a JIELONG-3 launch vehicle from the Yellow Sea Launch Area, China (YSLA). Unknown objects in Earth's orbit typically refer to objects detected orbiting the Earth but have not yet been identified or cataloged. These objects could be anything from previously untracked satellites, spent rocket stages, debris from satellite collisions, or even natural meteoroids temporarily captured by Earth's gravity.

Loading next visibility...
Identifier
61232, 2024-173F
Orbit
SSO
Last TLE update
5 hours ago
Origin
Flag of CNGUOX (CN / PRC)
Manufacturer
GUOX/HISTAR
Mission
Operational Commercial Technology
Bus & Motor
XSD, Unknown motor
Mass
~25 kg wet, ~25 kg dry
Launch date (UTC)
2024-09-24 (7 months ago)
Launch vehicle
JIELONG-3
Launch site
Yellow Sea Launch Area, China (YSLA)
Object type
Unknown
Shape & HBR
Box + 3 Pan, 0.3 m
Radar Cross Section
0.135 m², Medium (>0.1 m² and < 1m²)

Expand to show TLE details & history

TLE from 5 hours ago
0 OBJECT F
1 61232U 24173F   25129.48894876  .00013769  00000-0  29577-3 0  9993
2 61232  97.3771 208.5230 0009905 178.0905 182.0383 15.44752521 34809
Epoch: 2025-05-09T11:44Z
Definitive object data (Epoch: 2025-05-09T11:44:05.172Z)
Latitude
-0.00007°
Longitude
164.9571°
Altitude
441.973 km
Speed
7.643 km/s
True Right ascension
13h 54m 05s
True Declination
0° 00' 00"
Sunlit
Object was in full shadow at TLE epoch
Visualization TLE readout
Latitude
2.79342°
Longitude
164.79496°
Altitude
441.61 km
Speed
7.643 km/s
Apparent Right ascension
13h 20m 44s
Apparent Declination
-17° 57' 11"
Sunlit
Object is in full shadow
Visualization observer readout
Local Sidereal Time
00:35:07
Azimuth
332.54° NNW
Elevation
-65.926°
Doppler factor
1
Orbital elements
Apogee altitude
435.78 km
Perigee altitude
422.294 km
Semi-major axis
6,807.174 km
Eccentricity
0.0009905
Inclination
97.3771°
RAAN
208.523°
Arg. of periapsis
178.0905°
True anomaly
182.03427°
Mean anomaly
182.0383°
Eccentric anomaly
182.03628°
Mean motion
3.8645 °/min
BSTAR
0.00029577
Orbital period
93.16 mins
Loading maneuver chart data...
Loading SW <> Apogee altitude chart data...
Loading historical data...
Loading historical data...
Loading historical data...
Loading historical data...
Loading historical data...
Loading historical data...
Loading historical data...

OBJECT F Visibility forecast

Observer location: undefined°, undefined°

Span
Click to sort rows by Start time (UTC) header in descending order
Start Az.
Max El. time (UTC)
Max El. Az.
Max El.
End time (UTC)
End Az.
5 mins2025-05-09 18:30:39.112Z350.859° N2025-05-09 18:32:39.112Z307.089° NW30.057°2025-05-09 18:35:39.112Z220.475° SW
4 mins2025-05-10 04:59:39.112Z126.463° SE2025-05-10 05:00:39.112Z84.792° E35.128°2025-05-10 05:03:39.112Z2.631° NNE
|